Location: Ulm
(48.3980°N, 9.9777°E)
Time: 12:11:14
(UTC+01:00)

ISS - Pass Details

Date: 06 January 2018
Orbit: 402 x 407 km, 51.6° (Epoch: 19 January)

Event Time Altitude Azimuth Distance (km) Brightness Sun altitude
Exits shadow 05:13:43 15° 64° (ENE) 1,188 -0.8 -28.4°
Drops below altitude 10° 05:14:26 10° 67° (ENE) 1,470 -0.2 -28.3°
Sets 05:16:33 0° 71° (ENE) 2,333 1.1 -28.0°
